Location: Stara Lesna
(49.1528°N, 20.2911°E)
Time: 01:02:55
(UTC+02:00)

NPP - Pass Details

Date: 21 September 2019
Orbit: 826 x 827 km, 98.7° (Epoch: 20 October)

Event Time Altitude Azimuth Distance (km) Brightness Sun altitude
Rises 02:46:04 0° 13° (NNE) 3,380 7.7 -32.3°
Reaches altitude 10° 02:48:26 10° 12° (NNE) 2,442 6.8 -32.0°
Enters shadow 02:52:26 51° 2° (N) 1,043 4.3 -31.6°
